x

Buzzards Bay, Ma (buzm3) Weather Station

7:00 - Fri 9th Dec 2016 All times are EST. -5 hours from GMT.

  • Wind
    33mph, 44mph gusts
  • Aire Temp 35°f
  • Sea Pressure 1013.9mb
  • Buzzards Bay, Ma
  • Buzzards Bay, Ma

More Historic Weather Station data

Upgrade to MSW Pro to gain access to the past 30 days of data for over 8000 Wavebouys and Weather Stations around the globe.

Join Pro

Comparision Forecast

View Surf forecast
   
vie 12/09 7:00 33 44 mph 1013.9mb 35f
6:00 34 40 mph 1013.2mb 35f
5:00 32 37 mph 1013.1mb 35f
4:00 32 40 mph 1012.5mb 35f
3:00 31 36 mph 1012.4mb 36f
2:00 32 37 mph 1012.1mb 37f
1:00 30 34 mph 1012.1mb 36f
12:00 28 33 mph 1012.2mb 37f
jue 12/08 11:00 29 33 mph 1012.1mb 37f
10:00 34 38 mph 1011.5mb 38f
9:00 24 28 mph 1011.4mb 39f
8:00 24 28 mph 1011.1mb 42f
7:00 30 32 mph 1010.8mb 42f
6:00 23 26 mph 1010.6mb 43f
5:00 22 24 mph 1010.1mb 43f
4:00 22 23 mph 1009.9mb 44f
3:00 23
mph
1009.6mb 44f
2:00 26 30 mph 1009.3mb 45f
1:00 21 23 mph 1009.7mb 44f
12:00 16 17 mph 1010.9mb 43f
11:00 18 21 mph 1012.2mb 46f
10:00 17 20 mph 1013.6mb 46f
9:00 10 13 mph 1014.3mb 45f
8:00 13 14 mph 1014.3mb 44f
7:00 8 9 mph 1014.6mb 43f
6:00 6 7 mph 1014.9mb 42f
5:00 11
mph
1015.3mb 42f
4:00 10 11 mph 1014.9mb 42f
3:00 8 9 mph 1015.1mb 43f
2:00 9 10 mph 1015.5mb 44f
1:00 10
mph
1015.8mb 44f
12:00 2 3 mph 1015.6mb 44f
mié 12/07 11:00 8 9 mph 1016.3mb 43f
10:00 9
mph
1016.5mb 43f
9:00 3 5 mph 1016.6mb 44f
8:00 2
mph
1016.7mb 44f
7:00 5 6 mph 1017mb 44f
6:00 5
mph
1016.6mb 44f
5:00 2
mph
1015.9mb 43f
4:00 6 7 mph 1015.4mb 43f
3:00 3 5 mph 1014.8mb 43f
2:00 6 7 mph 1014.4mb 43f
1:00 10
mph
1014.1mb 42f
12:00 9 10 mph 1014.7mb 41f
11:00 8 10 mph 1015.4mb 40f
10:00 13 14 mph 1015.5mb 41f
9:00 15 16 mph 1014.7mb 40f
8:00 14 15 mph 1014.7mb 40f
7:00 18 20 mph 1013.4mb 41f
6:00 21 23 mph 1013.1mb 40f
5:00 24 25 mph 1012.5mb 40f
4:00 25 29 mph 1011.3mb 40f
3:00 20 22 mph 1012.7mb 40f
2:00 21 22 mph 1013.2mb 39f
1:00 20 22 mph 1013.9mb 39f
12:00 21 24 mph 1013.8mb 39f
mar 12/06 11:00 16 18 mph 1015.5mb 42f
10:00 15 17 mph 1015.4mb 43f
9:00 10 11 mph 1016.2mb 42f
7:00 13 14 mph 1016.1mb 42f
6:00 16 20 mph 1016.3mb 42f
5:00 16 18 mph 1016.3mb 42f
4:00 14 16 mph 1016.8mb 42f
3:00 13 14 mph 1017.8mb 43f
2:00 11 14 mph 1018.4mb 42f
1:00 10 11 mph 1018.6mb 42f
12:00 13 14 mph 1019.1mb 42f
11:00 14 16 mph 1020.1mb 42f
10:00 16 18 mph 1020.3mb 41f
9:00 16 18 mph 1020.1mb 40f
8:00 16 18 mph 1020.2mb 39f
7:00 16 17 mph 1020.4mb 40f
6:00 17 20 mph 1019.7mb 40f
5:00 22 24 mph 1019.1mb 41f
4:00 24 28 mph 1018.5mb 41f
3:00 21 22 mph 1018.2mb 42f
2:00 30 34 mph 1017.9mb 42f
1:00 33 36 mph 1016.9mb 43f
12:00 32 36 mph 1016.2mb 43f
lun 12/05 11:00 33 38 mph 1016.1mb 44f
10:00 30 32 mph 1015.9mb 43f
9:00 25 26 mph 1015.2mb 43f
8:00 24 26 mph 1015mb 42f
7:00 22 25 mph 1014.6mb 43f
6:00 18 20 mph 1015.1mb 42f
5:00 17 18 mph 1014.9mb 42f
4:00 21 24 mph 1014.3mb 43f
3:00 22 24 mph 1013.8mb 44f
2:00 21 22 mph 1013mb 44f